User: anonymous   Login
Location: Archamps
(46.1365°N, 6.1329°E)
Time: 19:50:02
(UTC+00:00)
Language:

Cosmos 44 - Orbit

View from above orbital plane
View from above orbital plane
View from above satellite
View from above satellite

Ground track
Ground track

The orbit data is extracted from the following two-line orbital elements,

1 00876U 64053A   24151.04056577  .00000333  00000-0  76629-4 0  9999
2 00876  65.0613  14.8529 0142650 202.7876 156.6856 14.64701192179057
Epoch (UTC): 30 May 2024 00:58:24
Eccentricity: 0.0142650
inclination: 65.0613°
perigee height: 577 km
apogee height: 778 km
right ascension of ascending node: 14.8529°
argument of perigee: 202.7876°
revolutions per day: 14.64701192
mean anomaly at epoch: 156.6856°
orbit number at epoch: 17905

The dashed part of the orbit path shows where the satellite is in the earth's shadow,  

DLR